Year,Month,Day,Hour,Minute,Value (Times are PST for temperature in C)
2019,06,26,00,00,17.50
2019,06,26,00,01,17.50
2019,06,26,00,02,17.50
2019,06,26,00,03,17.60
2019,06,26,00,04,17.60
2019,06,26,00,05,17.60
2019,06,26,00,06,17.60
2019,06,26,00,07,17.60
2019,06,26,00,08,17.70
2019,06,26,00,09,17.70
2019,06,26,00,10,17.70
2019,06,26,00,11,17.70
2019,06,26,00,12,17.70
2019,06,26,00,13,17.70
2019,06,26,00,14,17.70
2019,06,26,00,15,17.70
2019,06,26,00,16,17.70
2019,06,26,00,17,17.70
2019,06,26,00,18,17.70
2019,06,26,00,19,17.70
2019,06,26,00,20,17.70
2019,06,26,00,21,17.70
2019,06,26,00,22,17.70
2019,06,26,00,23,17.70
2019,06,26,00,24,17.70
2019,06,26,00,25,17.60
2019,06,26,00,26,17.60
2019,06,26,00,27,17.60
2019,06,26,00,28,17.60
2019,06,26,00,29,17.60
2019,06,26,00,30,17.60
2019,06,26,00,31,17.60
2019,06,26,00,32,17.60
2019,06,26,00,33,17.60
2019,06,26,00,34,17.60
2019,06,26,00,35,17.50
2019,06,26,00,36,17.50
2019,06,26,00,37,17.50
2019,06,26,00,38,17.50
2019,06,26,00,39,17.50
2019,06,26,00,40,17.50
2019,06,26,00,41,17.50
2019,06,26,00,42,17.50
2019,06,26,00,43,17.50
2019,06,26,00,44,17.50
2019,06,26,00,45,17.50
2019,06,26,00,46,17.50
2019,06,26,00,47,17.50
2019,06,26,00,48,17.50
2019,06,26,00,49,17.50
2019,06,26,00,50,17.50
2019,06,26,00,51,17.50
2019,06,26,00,52,17.60
2019,06,26,00,53,17.60
2019,06,26,00,54,17.60
2019,06,26,00,55,17.60
2019,06,26,00,56,17.60
2019,06,26,00,57,17.60
2019,06,26,00,58,17.60
2019,06,26,00,59,17.60
2019,06,26,01,00,17.60
2019,06,26,01,01,17.60
2019,06,26,01,02,17.60
2019,06,26,01,03,17.50
2019,06,26,01,04,17.50
2019,06,26,01,05,17.50
2019,06,26,01,06,17.40
2019,06,26,01,07,17.40
2019,06,26,01,08,17.40
2019,06,26,01,09,17.40
2019,06,26,01,10,17.30
2019,06,26,01,11,17.30
2019,06,26,01,12,17.30
2019,06,26,01,13,17.30
2019,06,26,01,14,17.30
2019,06,26,01,15,17.20
2019,06,26,01,16,17.20
2019,06,26,01,17,17.20
2019,06,26,01,18,17.20
2019,06,26,01,19,17.20
2019,06,26,01,20,17.10
2019,06,26,01,21,17.10
2019,06,26,01,22,17.10
2019,06,26,01,23,17.10
2019,06,26,01,24,17.00
2019,06,26,01,25,17.00
2019,06,26,01,26,17.00
2019,06,26,01,27,16.90
2019,06,26,01,28,16.90
2019,06,26,01,29,16.90
2019,06,26,01,30,16.80
2019,06,26,01,31,16.80
2019,06,26,01,32,16.80
2019,06,26,01,33,16.70
2019,06,26,01,34,16.70
2019,06,26,01,35,16.60
2019,06,26,01,36,16.60
2019,06,26,01,37,16.60
2019,06,26,01,38,16.50
2019,06,26,01,39,16.50
2019,06,26,01,40,16.40
2019,06,26,01,41,16.40
2019,06,26,01,42,16.30
2019,06,26,01,43,16.30
2019,06,26,01,44,16.20
2019,06,26,01,45,16.20
2019,06,26,01,46,16.10
2019,06,26,01,47,16.10
2019,06,26,01,48,16.00
2019,06,26,01,49,16.00
2019,06,26,01,50,15.90
2019,06,26,01,51,15.80
2019,06,26,01,52,15.80
2019,06,26,01,53,15.70
2019,06,26,01,54,15.60
2019,06,26,01,55,15.60
2019,06,26,01,56,15.50
2019,06,26,01,57,15.50
2019,06,26,01,58,15.40
2019,06,26,01,59,15.30
2019,06,26,02,00,15.30
2019,06,26,02,01,15.30
2019,06,26,02,02,15.20
2019,06,26,02,03,15.20
2019,06,26,02,04,15.10
2019,06,26,02,05,15.10
2019,06,26,02,06,15.00
2019,06,26,02,07,15.00
2019,06,26,02,08,14.90
2019,06,26,02,09,14.90
2019,06,26,02,10,14.80
2019,06,26,02,11,14.80
2019,06,26,02,12,14.80
2019,06,26,02,13,14.70
2019,06,26,02,14,14.70
2019,06,26,02,15,14.60
2019,06,26,02,16,14.60
2019,06,26,02,17,14.60
2019,06,26,02,18,14.50
2019,06,26,02,19,14.50
2019,06,26,02,20,14.50
2019,06,26,02,21,14.40
2019,06,26,02,22,14.40
2019,06,26,02,23,14.40
2019,06,26,02,24,14.40
2019,06,26,02,25,14.40
2019,06,26,02,26,14.30
2019,06,26,02,27,14.20
2019,06,26,02,28,14.20
2019,06,26,02,29,14.20
2019,06,26,02,30,14.20
2019,06,26,02,31,14.10
2019,06,26,02,32,14.10
2019,06,26,02,33,14.00
2019,06,26,02,34,14.00
2019,06,26,02,35,14.00
2019,06,26,02,36,13.90
2019,06,26,02,37,13.90
2019,06,26,02,38,13.90
2019,06,26,02,39,13.80
2019,06,26,02,40,13.80
2019,06,26,02,41,13.80
2019,06,26,02,42,13.70
2019,06,26,02,43,13.70
2019,06,26,02,44,13.70
2019,06,26,02,45,13.70
2019,06,26,02,46,13.70
2019,06,26,02,47,13.60
2019,06,26,02,48,13.60
2019,06,26,02,49,13.60
2019,06,26,02,50,13.60
2019,06,26,02,51,13.50
2019,06,26,02,52,13.50
2019,06,26,02,53,13.50
2019,06,26,02,54,13.40
2019,06,26,02,55,13.40
2019,06,26,02,56,13.40
2019,06,26,02,57,13.40
2019,06,26,02,58,13.40
2019,06,26,02,59,13.30
2019,06,26,03,00,13.30
2019,06,26,03,01,13.30
2019,06,26,03,02,13.30
2019,06,26,03,03,13.30
2019,06,26,03,04,13.30
2019,06,26,03,05,13.20
2019,06,26,03,06,13.20
2019,06,26,03,07,13.20
2019,06,26,03,08,13.10
2019,06,26,03,09,13.10
2019,06,26,03,10,13.10
2019,06,26,03,11,13.10
2019,06,26,03,12,13.00
2019,06,26,03,13,13.00
2019,06,26,03,14,12.90
2019,06,26,03,15,12.90
2019,06,26,03,16,12.90
2019,06,26,03,17,12.90
2019,06,26,03,18,12.90
2019,06,26,03,19,12.90
2019,06,26,03,20,12.90
2019,06,26,03,21,12.80
2019,06,26,03,22,12.80
2019,06,26,03,23,12.80
2019,06,26,03,24,12.80
2019,06,26,03,25,12.80
2019,06,26,03,26,12.80
2019,06,26,03,27,12.70
2019,06,26,03,28,12.70
2019,06,26,03,29,12.70
2019,06,26,03,30,12.70
2019,06,26,03,31,12.70
2019,06,26,03,32,12.70
2019,06,26,03,33,12.60
2019,06,26,03,34,12.60
2019,06,26,03,35,12.60
2019,06,26,03,36,12.60
2019,06,26,03,37,12.60
2019,06,26,03,38,12.60
2019,06,26,03,39,12.60
2019,06,26,03,40,12.50
2019,06,26,03,41,12.50
2019,06,26,03,42,12.50
2019,06,26,03,43,12.40
2019,06,26,03,44,12.40
2019,06,26,03,45,12.40
2019,06,26,03,46,12.40
2019,06,26,03,47,12.30
2019,06,26,03,48,12.30
2019,06,26,03,49,12.30
2019,06,26,03,50,12.30
2019,06,26,03,51,12.30
2019,06,26,03,52,12.30
2019,06,26,03,53,12.30
2019,06,26,03,54,12.20
2019,06,26,03,55,12.20
2019,06,26,03,56,12.20
2019,06,26,03,57,12.20
2019,06,26,03,58,12.20
2019,06,26,03,59,12.20
2019,06,26,04,00,12.20
2019,06,26,04,01,12.20
2019,06,26,04,02,12.20
2019,06,26,04,03,12.10
2019,06,26,04,04,12.10
2019,06,26,04,05,12.10
2019,06,26,04,06,12.10
2019,06,26,04,07,12.10
2019,06,26,04,08,12.10
2019,06,26,04,09,12.10
2019,06,26,04,10,12.10
2019,06,26,04,11,12.00
2019,06,26,04,12,12.00
2019,06,26,04,13,12.00
2019,06,26,04,14,12.00
2019,06,26,04,15,12.00
2019,06,26,04,16,11.90
2019,06,26,04,17,11.90
2019,06,26,04,18,11.90
2019,06,26,04,19,11.90
2019,06,26,04,20,11.90
2019,06,26,04,21,11.90
2019,06,26,04,22,11.90
2019,06,26,04,23,11.90
2019,06,26,04,24,11.80
2019,06,26,04,25,11.80
2019,06,26,04,26,11.80
2019,06,26,04,27,11.80
2019,06,26,04,28,11.80
2019,06,26,04,29,11.80
2019,06,26,04,30,11.80
2019,06,26,04,31,11.80
2019,06,26,04,32,11.80
2019,06,26,04,33,11.80
2019,06,26,04,34,11.80
2019,06,26,04,35,11.70
2019,06,26,04,36,11.70
2019,06,26,04,37,11.70
2019,06,26,04,38,11.70
2019,06,26,04,39,11.70
2019,06,26,04,40,11.70
2019,06,26,04,41,11.70
2019,06,26,04,42,11.70
2019,06,26,04,43,11.70
2019,06,26,04,44,11.70
2019,06,26,04,45,11.70
2019,06,26,04,46,11.70
2019,06,26,04,47,11.60
2019,06,26,04,48,11.60
2019,06,26,04,49,11.60
2019,06,26,04,50,11.60
2019,06,26,04,51,11.60
2019,06,26,04,52,11.50
2019,06,26,04,53,11.50
2019,06,26,04,54,11.50
2019,06,26,04,55,11.50
2019,06,26,04,56,11.40
2019,06,26,04,57,11.40
2019,06,26,04,58,11.40
2019,06,26,04,59,11.40
2019,06,26,05,00,11.40
2019,06,26,05,01,11.40
2019,06,26,05,02,11.40
2019,06,26,05,03,11.40
2019,06,26,05,04,11.30
2019,06,26,05,05,11.30
2019,06,26,05,06,11.30
2019,06,26,05,07,11.30
2019,06,26,05,08,11.30
2019,06,26,05,09,11.30
2019,06,26,05,10,11.30
2019,06,26,05,11,11.30
2019,06,26,05,12,11.30
2019,06,26,05,13,11.30
2019,06,26,05,14,11.30
2019,06,26,05,15,11.30
2019,06,26,05,16,11.20
2019,06,26,05,17,11.20
2019,06,26,05,18,11.20
2019,06,26,05,19,11.20
2019,06,26,05,20,11.20
2019,06,26,05,21,11.20
2019,06,26,05,22,11.20
2019,06,26,05,23,11.20
2019,06,26,05,24,11.10
2019,06,26,05,25,11.10
2019,06,26,05,26,11.10
2019,06,26,05,27,11.10
2019,06,26,05,28,11.10
2019,06,26,05,29,11.10
2019,06,26,05,30,11.10
2019,06,26,05,31,11.10
2019,06,26,05,32,11.10
2019,06,26,05,33,11.10
2019,06,26,05,34,11.10
2019,06,26,05,35,11.10
2019,06,26,05,36,11.10
2019,06,26,05,37,11.10
2019,06,26,05,38,11.10
2019,06,26,05,39,11.00
2019,06,26,05,40,11.00
2019,06,26,05,41,11.00
2019,06,26,05,42,11.10
2019,06,26,05,43,11.10
2019,06,26,05,44,11.10
2019,06,26,05,45,11.10
2019,06,26,05,46,11.10
2019,06,26,05,47,11.10
2019,06,26,05,48,11.10
2019,06,26,05,49,11.00
2019,06,26,05,50,11.00
2019,06,26,05,51,11.00
2019,06,26,05,52,11.00
2019,06,26,05,53,11.00
2019,06,26,05,54,10.90
2019,06,26,05,55,10.90
2019,06,26,05,56,10.90
2019,06,26,05,57,10.90
2019,06,26,05,58,10.90
2019,06,26,05,59,10.90
2019,06,26,06,00,10.90
2019,06,26,06,01,10.90
2019,06,26,06,02,10.90
2019,06,26,06,03,10.90
2019,06,26,06,04,11.00
2019,06,26,06,05,11.00
2019,06,26,06,06,11.00
2019,06,26,06,07,11.10
2019,06,26,06,08,11.10
2019,06,26,06,09,11.10
2019,06,26,06,10,11.10
2019,06,26,06,11,11.10
2019,06,26,06,12,11.20
2019,06,26,06,13,11.20
2019,06,26,06,14,11.20
2019,06,26,06,15,11.20
2019,06,26,06,16,11.20
2019,06,26,06,17,11.20
2019,06,26,06,18,11.30
2019,06,26,06,19,11.30
2019,06,26,06,20,11.30
2019,06,26,06,21,11.40
2019,06,26,06,22,11.40
2019,06,26,06,23,11.40
2019,06,26,06,24,11.50
2019,06,26,06,25,11.50
2019,06,26,06,26,11.60
2019,06,26,06,27,11.60
2019,06,26,06,28,11.60
2019,06,26,06,29,11.70
2019,06,26,06,30,11.70
2019,06,26,06,31,11.80
2019,06,26,06,32,11.80
2019,06,26,06,33,11.80
2019,06,26,06,34,11.90
2019,06,26,06,35,11.90
2019,06,26,06,36,12.00
2019,06,26,06,37,12.00
2019,06,26,06,38,12.10
2019,06,26,06,39,12.10
2019,06,26,06,40,12.20
2019,06,26,06,41,12.20
2019,06,26,06,42,12.20
2019,06,26,06,43,12.30
2019,06,26,06,44,12.40
2019,06,26,06,45,12.40
2019,06,26,06,46,12.40
2019,06,26,06,47,12.50
2019,06,26,06,48,12.60
2019,06,26,06,49,12.60
2019,06,26,06,50,12.60
2019,06,26,06,51,12.70
2019,06,26,06,52,12.70
2019,06,26,06,53,12.80
2019,06,26,06,54,12.80
2019,06,26,06,55,12.80
2019,06,26,06,56,12.90
2019,06,26,06,57,13.00
2019,06,26,06,58,13.00
2019,06,26,06,59,13.10
2019,06,26,07,00,13.20
2019,06,26,07,01,13.20
2019,06,26,07,02,13.30
2019,06,26,07,03,13.40
2019,06,26,07,04,13.40
2019,06,26,07,05,13.50
2019,06,26,07,06,13.50
2019,06,26,07,07,13.60
2019,06,26,07,08,13.60
2019,06,26,07,09,13.70
2019,06,26,07,10,13.70
2019,06,26,07,11,13.80
2019,06,26,07,12,13.80
2019,06,26,07,13,13.80
2019,06,26,07,14,13.90
2019,06,26,07,15,13.90
2019,06,26,07,16,14.00
2019,06,26,07,17,14.10
2019,06,26,07,18,14.10
2019,06,26,07,19,14.10
2019,06,26,07,20,14.20
2019,06,26,07,21,14.20
2019,06,26,07,22,14.20
2019,06,26,07,23,14.20
2019,06,26,07,24,14.30
2019,06,26,07,25,14.30
2019,06,26,07,26,14.40
2019,06,26,07,27,14.40
2019,06,26,07,28,14.50
2019,06,26,07,29,14.50
2019,06,26,07,30,14.60
2019,06,26,07,31,14.60
2019,06,26,07,32,14.70
2019,06,26,07,33,14.70
2019,06,26,07,34,14.80
2019,06,26,07,35,14.80
2019,06,26,07,36,14.90
2019,06,26,07,37,14.90
2019,06,26,07,38,15.00
2019,06,26,07,39,15.10
2019,06,26,07,40,15.10
2019,06,26,07,41,15.20
2019,06,26,07,42,15.20
2019,06,26,07,43,15.20
2019,06,26,07,44,15.30
2019,06,26,07,45,15.30
2019,06,26,07,46,15.40
2019,06,26,07,47,15.50
2019,06,26,07,48,15.50
2019,06,26,07,49,15.60
2019,06,26,07,50,15.60
2019,06,26,07,51,15.70
2019,06,26,07,52,15.70
2019,06,26,07,53,15.80
2019,06,26,07,54,15.80
2019,06,26,07,55,15.80
2019,06,26,07,56,15.70
2019,06,26,07,57,15.70
2019,06,26,07,58,15.60
2019,06,26,07,59,15.50
2019,06,26,08,00,15.40
2019,06,26,08,01,15.30
2019,06,26,08,02,15.20
2019,06,26,08,03,15.20
2019,06,26,08,04,15.10
2019,06,26,08,05,15.10
2019,06,26,08,06,15.00
2019,06,26,08,07,15.00
2019,06,26,08,08,14.90
2019,06,26,08,09,14.90
2019,06,26,08,10,14.90
2019,06,26,08,11,14.90
2019,06,26,08,12,14.90
2019,06,26,08,13,15.00
2019,06,26,08,14,15.00
2019,06,26,08,15,15.00
2019,06,26,08,16,15.10
2019,06,26,08,17,15.10
2019,06,26,08,18,15.00
2019,06,26,08,19,15.00
2019,06,26,08,20,15.00
2019,06,26,08,21,15.00
2019,06,26,08,22,15.00
2019,06,26,08,23,15.00
2019,06,26,08,24,15.00
2019,06,26,08,25,15.00
2019,06,26,08,26,15.00
2019,06,26,08,27,15.00
2019,06,26,08,28,15.10
2019,06,26,08,29,15.10
2019,06,26,08,30,15.10
2019,06,26,08,31,15.10
2019,06,26,08,32,15.10
2019,06,26,08,33,15.20
2019,06,26,08,34,15.20
2019,06,26,08,35,15.20
2019,06,26,08,36,15.20
2019,06,26,08,37,15.30
2019,06,26,08,38,15.30
2019,06,26,08,39,15.30
2019,06,26,08,40,15.40
2019,06,26,08,41,15.40
2019,06,26,08,42,15.40
2019,06,26,08,43,15.50
2019,06,26,08,44,15.50
2019,06,26,08,45,15.60
2019,06,26,08,46,15.60
2019,06,26,08,47,15.70
2019,06,26,08,48,15.70
2019,06,26,08,49,15.80
2019,06,26,08,50,15.80
2019,06,26,08,51,15.90
2019,06,26,08,52,16.00
2019,06,26,08,53,16.10
2019,06,26,08,54,16.10
2019,06,26,08,55,16.20
2019,06,26,08,56,16.30
2019,06,26,08,57,16.40
2019,06,26,08,58,16.40
2019,06,26,08,59,16.40
2019,06,26,09,00,16.50
2019,06,26,09,01,16.60
2019,06,26,09,02,16.60
2019,06,26,09,03,16.60
2019,06,26,09,04,16.60
2019,06,26,09,05,16.60
2019,06,26,09,06,16.60
2019,06,26,09,07,16.60
2019,06,26,09,08,16.60
2019,06,26,09,09,16.60
2019,06,26,09,10,16.60
2019,06,26,09,11,16.70
2019,06,26,09,12,16.70
2019,06,26,09,13,16.70
2019,06,26,09,14,16.60
2019,06,26,09,15,16.60
2019,06,26,09,16,16.60
2019,06,26,09,17,16.50
2019,06,26,09,18,16.50
2019,06,26,09,19,16.50
2019,06,26,09,20,16.40
2019,06,26,09,21,16.40
2019,06,26,09,22,16.40
2019,06,26,09,23,16.40
2019,06,26,09,24,16.50
2019,06,26,09,25,16.50
2019,06,26,09,26,16.60
2019,06,26,09,27,16.60
2019,06,26,09,28,16.70
2019,06,26,09,29,16.70
2019,06,26,09,30,16.80
2019,06,26,09,31,16.80
2019,06,26,09,32,16.80
2019,06,26,09,33,16.80
2019,06,26,09,34,16.80
2019,06,26,09,35,16.80
2019,06,26,09,36,16.80
2019,06,26,09,37,16.80
2019,06,26,09,38,16.70
2019,06,26,09,39,16.60
2019,06,26,09,40,16.50
2019,06,26,09,41,16.50
2019,06,26,09,42,16.40
2019,06,26,09,43,16.30
2019,06,26,09,44,16.20
2019,06,26,09,45,16.20
2019,06,26,09,46,16.20
2019,06,26,09,47,16.10
2019,06,26,09,48,16.10
2019,06,26,09,49,16.20
2019,06,26,09,50,16.20
2019,06,26,09,51,16.20
2019,06,26,09,52,16.20
2019,06,26,09,53,16.30
2019,06,26,09,54,16.30
2019,06,26,09,55,16.30
2019,06,26,09,56,16.30
2019,06,26,09,57,16.30
2019,06,26,09,58,16.30
2019,06,26,09,59,16.30
2019,06,26,10,00,16.30
2019,06,26,10,01,16.30
2019,06,26,10,02,16.40
2019,06,26,10,03,16.30
2019,06,26,10,04,16.30
2019,06,26,10,05,16.30
2019,06,26,10,06,16.30
2019,06,26,10,07,16.30
2019,06,26,10,08,16.30
2019,06,26,10,09,16.30
2019,06,26,10,10,16.40
2019,06,26,10,11,16.40
2019,06,26,10,12,16.50
2019,06,26,10,13,16.50
2019,06,26,10,14,16.60
2019,06,26,10,15,16.70
2019,06,26,10,16,16.90
2019,06,26,10,17,17.00
2019,06,26,10,18,17.10
2019,06,26,10,19,17.20
2019,06,26,10,20,17.30
2019,06,26,10,21,17.40
2019,06,26,10,22,17.40
2019,06,26,10,23,17.50
2019,06,26,10,24,17.60
2019,06,26,10,25,17.70
2019,06,26,10,26,17.70
2019,06,26,10,27,17.80
2019,06,26,10,28,17.80
2019,06,26,10,29,17.90
2019,06,26,10,30,17.90
2019,06,26,10,31,17.90
2019,06,26,10,32,17.90
2019,06,26,10,33,17.90
2019,06,26,10,34,18.00
2019,06,26,10,35,18.10
2019,06,26,10,36,18.20
2019,06,26,10,37,18.30
2019,06,26,10,38,18.30
2019,06,26,10,39,18.40
2019,06,26,10,40,18.40
2019,06,26,10,41,18.40
2019,06,26,10,42,18.40
2019,06,26,10,43,18.40
2019,06,26,10,44,18.50
2019,06,26,10,45,18.50
2019,06,26,10,46,18.60
2019,06,26,10,47,18.60
2019,06,26,10,48,18.60
2019,06,26,10,49,18.60
2019,06,26,10,50,18.50
2019,06,26,10,51,18.40
2019,06,26,10,52,18.40
2019,06,26,10,53,18.30
2019,06,26,10,54,18.20
2019,06,26,10,55,18.00
2019,06,26,10,56,17.90
2019,06,26,10,57,17.80
2019,06,26,10,58,17.80
2019,06,26,10,59,17.70
2019,06,26,11,00,17.70
2019,06,26,11,01,17.70
2019,06,26,11,02,17.70
2019,06,26,11,03,17.70
2019,06,26,11,04,17.70
2019,06,26,11,05,17.70
2019,06,26,11,06,17.80
2019,06,26,11,07,17.80
2019,06,26,11,08,17.80
2019,06,26,11,09,17.70
2019,06,26,11,10,17.80
2019,06,26,11,11,17.80
2019,06,26,11,12,17.90
2019,06,26,11,13,17.90
2019,06,26,11,14,18.00
2019,06,26,11,15,18.00
2019,06,26,11,16,18.00
2019,06,26,11,17,18.10
2019,06,26,11,18,18.00
2019,06,26,11,19,18.10
2019,06,26,11,20,18.10
2019,06,26,11,21,18.10
2019,06,26,11,22,18.20
2019,06,26,11,23,18.30
2019,06,26,11,24,18.30
2019,06,26,11,25,18.40
2019,06,26,11,26,18.40
2019,06,26,11,27,18.50
2019,06,26,11,28,18.50
2019,06,26,11,29,18.50
2019,06,26,11,30,18.60
2019,06,26,11,31,18.60
2019,06,26,11,32,18.60
2019,06,26,11,33,18.60
2019,06,26,11,34,18.70
2019,06,26,11,35,18.70
2019,06,26,11,36,18.70
2019,06,26,11,37,18.80
2019,06,26,11,38,18.80
2019,06,26,11,39,18.80
2019,06,26,11,40,18.90
2019,06,26,11,41,19.00
2019,06,26,11,42,19.10
2019,06,26,11,43,19.10
2019,06,26,11,44,19.10
2019,06,26,11,45,19.10
2019,06,26,11,46,19.20
2019,06,26,11,47,19.30
2019,06,26,11,48,19.40
2019,06,26,11,49,19.50
2019,06,26,11,50,19.60
2019,06,26,11,51,19.70
2019,06,26,11,52,19.80
2019,06,26,11,53,19.80
2019,06,26,11,54,19.80
2019,06,26,11,55,19.80
2019,06,26,11,56,19.90
2019,06,26,11,57,19.90
2019,06,26,11,58,19.80
2019,06,26,11,59,19.70
2019,06,26,12,00,19.60
2019,06,26,12,01,19.50
2019,06,26,12,02,19.40
2019,06,26,12,03,19.30
2019,06,26,12,04,19.30
2019,06,26,12,05,19.30
2019,06,26,12,06,19.30
2019,06,26,12,07,19.20
2019,06,26,12,08,19.20
2019,06,26,12,09,19.20
2019,06,26,12,10,19.20
2019,06,26,12,11,19.20
2019,06,26,12,12,19.30
2019,06,26,12,13,19.30
2019,06,26,12,14,19.30
2019,06,26,12,15,19.40
2019,06,26,12,16,19.40
2019,06,26,12,17,19.50
2019,06,26,12,18,19.60
2019,06,26,12,19,19.70
2019,06,26,12,20,19.70
2019,06,26,12,21,19.80
2019,06,26,12,22,19.80
2019,06,26,12,23,19.90
2019,06,26,12,24,19.90
2019,06,26,12,25,19.90
2019,06,26,12,26,19.90
2019,06,26,12,27,19.90
2019,06,26,12,28,19.90
2019,06,26,12,29,19.90
2019,06,26,12,30,20.00
2019,06,26,12,31,20.00
2019,06,26,12,32,20.10
2019,06,26,12,33,20.10
2019,06,26,12,34,20.20
2019,06,26,12,35,20.30
2019,06,26,12,36,20.30
2019,06,26,12,37,20.30
2019,06,26,12,38,20.30
2019,06,26,12,39,20.20
2019,06,26,12,40,20.20
2019,06,26,12,41,20.20
2019,06,26,12,42,20.20
2019,06,26,12,43,20.20
2019,06,26,12,44,20.10
2019,06,26,12,45,20.10
2019,06,26,12,46,20.10
2019,06,26,12,47,20.10
2019,06,26,12,48,20.20
2019,06,26,12,49,20.20
2019,06,26,12,50,20.30
2019,06,26,12,51,20.40
2019,06,26,12,52,20.50
2019,06,26,12,53,20.50
2019,06,26,12,54,20.50
2019,06,26,12,55,20.50
2019,06,26,12,56,20.50
2019,06,26,12,57,20.50
2019,06,26,12,58,20.50
2019,06,26,12,59,20.50
2019,06,26,13,00,20.50
2019,06,26,13,01,20.50
2019,06,26,13,02,20.60
2019,06,26,13,03,20.60
2019,06,26,13,04,20.70
2019,06,26,13,05,20.80
2019,06,26,13,06,20.80
2019,06,26,13,07,20.90
2019,06,26,13,08,21.00
2019,06,26,13,09,21.10
2019,06,26,13,10,21.20
2019,06,26,13,11,21.20
2019,06,26,13,12,21.20
2019,06,26,13,13,21.20
2019,06,26,13,14,21.20
2019,06,26,13,15,21.20
2019,06,26,13,16,21.20
2019,06,26,13,17,21.20
2019,06,26,13,18,21.20
2019,06,26,13,19,21.20
2019,06,26,13,20,21.20
2019,06,26,13,21,21.20
2019,06,26,13,22,21.20
2019,06,26,13,23,21.20
2019,06,26,13,24,21.20
2019,06,26,13,25,21.10
2019,06,26,13,26,21.10
2019,06,26,13,27,21.10
2019,06,26,13,28,21.00
2019,06,26,13,29,20.90
2019,06,26,13,30,20.80
2019,06,26,13,31,20.80
2019,06,26,13,32,20.70
2019,06,26,13,33,20.70
2019,06,26,13,34,20.70
2019,06,26,13,35,20.70
2019,06,26,13,36,20.80
2019,06,26,13,37,20.80
2019,06,26,13,38,20.90
2019,06,26,13,39,21.00
2019,06,26,13,40,21.00
2019,06,26,13,41,21.00
2019,06,26,13,42,20.90
2019,06,26,13,43,20.90
2019,06,26,13,44,20.90
2019,06,26,13,45,20.90
2019,06,26,13,46,21.00
2019,06,26,13,47,21.10
2019,06,26,13,48,21.10
2019,06,26,13,49,21.10
2019,06,26,13,50,21.10
2019,06,26,13,51,21.10
2019,06,26,13,52,21.20
2019,06,26,13,53,21.20
2019,06,26,13,54,21.20
2019,06,26,13,55,21.20
2019,06,26,13,56,21.20
2019,06,26,13,57,21.30
2019,06,26,13,58,21.40
2019,06,26,13,59,21.50
2019,06,26,14,00,21.60
2019,06,26,14,01,21.80
2019,06,26,14,02,21.80
2019,06,26,14,03,21.90
2019,06,26,14,04,22.00
2019,06,26,14,05,22.20
2019,06,26,14,06,22.30
2019,06,26,14,07,22.40
2019,06,26,14,08,22.60
2019,06,26,14,09,22.70
2019,06,26,14,10,22.70
2019,06,26,14,11,22.80
2019,06,26,14,12,22.80
2019,06,26,14,13,22.80
2019,06,26,14,14,22.80
2019,06,26,14,15,22.80
2019,06,26,14,16,22.80
2019,06,26,14,17,22.90
2019,06,26,14,18,23.00
2019,06,26,14,19,23.10
2019,06,26,14,20,23.20
2019,06,26,14,21,23.30
2019,06,26,14,22,23.40
2019,06,26,14,23,23.50
2019,06,26,14,24,23.60
2019,06,26,14,25,23.60
2019,06,26,14,26,23.70
2019,06,26,14,27,23.70
2019,06,26,14,28,23.70
2019,06,26,14,29,23.80
2019,06,26,14,30,23.80
2019,06,26,14,31,23.70
2019,06,26,14,32,23.60
2019,06,26,14,33,23.40
2019,06,26,14,34,23.40
2019,06,26,14,35,23.30
2019,06,26,14,36,23.30
2019,06,26,14,37,23.30
2019,06,26,14,38,23.30
2019,06,26,14,39,23.30
2019,06,26,14,40,23.20
2019,06,26,14,41,23.10
2019,06,26,14,42,23.10
2019,06,26,14,43,23.10
2019,06,26,14,44,23.10
2019,06,26,14,45,23.10
2019,06,26,14,46,23.10
2019,06,26,14,47,23.20
2019,06,26,14,48,23.20
2019,06,26,14,49,23.20
2019,06,26,14,50,23.30
2019,06,26,14,51,23.40
2019,06,26,14,52,23.40
2019,06,26,14,53,23.50
2019,06,26,14,54,23.60
2019,06,26,14,55,23.70
2019,06,26,14,56,23.80
2019,06,26,14,57,23.80
2019,06,26,14,58,23.90
2019,06,26,14,59,23.90
2019,06,26,15,00,23.80
2019,06,26,15,01,23.80
2019,06,26,15,02,23.80
2019,06,26,15,03,23.80
2019,06,26,15,04,23.90
2019,06,26,15,05,23.90
2019,06,26,15,06,24.00
2019,06,26,15,07,24.00
2019,06,26,15,08,24.10
2019,06,26,15,09,24.10
2019,06,26,15,10,24.20
2019,06,26,15,11,24.30
2019,06,26,15,12,24.40
2019,06,26,15,13,24.40
2019,06,26,15,14,24.40
2019,06,26,15,15,24.30
2019,06,26,15,16,24.20
2019,06,26,15,17,24.10
2019,06,26,15,18,24.10
2019,06,26,15,19,24.10
2019,06,26,15,20,24.10
2019,06,26,15,21,24.10
2019,06,26,15,22,24.20
2019,06,26,15,23,24.20
2019,06,26,15,24,24.20
2019,06,26,15,25,24.30
2019,06,26,15,26,24.30
2019,06,26,15,27,24.30
2019,06,26,15,28,24.40
2019,06,26,15,29,24.40
2019,06,26,15,30,24.50
2019,06,26,15,31,24.50
2019,06,26,15,32,24.50
2019,06,26,15,33,24.50
2019,06,26,15,34,24.50
2019,06,26,15,35,24.60
2019,06,26,15,36,24.60
2019,06,26,15,37,24.60
2019,06,26,15,38,24.60
2019,06,26,15,39,24.60
2019,06,26,15,40,24.60
2019,06,26,15,41,24.50
2019,06,26,15,42,24.40
2019,06,26,15,43,24.30
2019,06,26,15,44,24.30
2019,06,26,15,45,24.20
2019,06,26,15,46,24.20
2019,06,26,15,47,24.20
2019,06,26,15,48,24.20
2019,06,26,15,49,24.20
2019,06,26,15,50,24.20
2019,06,26,15,51,24.20
2019,06,26,15,52,24.20
2019,06,26,15,53,24.30
2019,06,26,15,54,24.30
2019,06,26,15,55,24.30
2019,06,26,15,56,24.30
2019,06,26,15,57,24.20
2019,06,26,15,58,24.20
2019,06,26,15,59,24.10
2019,06,26,16,00,24.10
2019,06,26,16,01,24.10
2019,06,26,16,02,24.10
2019,06,26,16,03,24.10
2019,06,26,16,04,24.20
2019,06,26,16,05,24.20
2019,06,26,16,06,24.30
2019,06,26,16,07,24.30
2019,06,26,16,08,24.30
2019,06,26,16,09,24.20
2019,06,26,16,10,24.20
2019,06,26,16,11,24.10
2019,06,26,16,12,24.00
2019,06,26,16,13,23.90
2019,06,26,16,14,23.90
2019,06,26,16,15,23.80
2019,06,26,16,16,23.80
2019,06,26,16,17,23.80
2019,06,26,16,18,23.80
2019,06,26,16,19,23.80
2019,06,26,16,20,23.80
2019,06,26,16,21,23.70
2019,06,26,16,22,23.70
2019,06,26,16,23,23.70
2019,06,26,16,24,23.60
2019,06,26,16,25,23.50
2019,06,26,16,26,23.40
2019,06,26,16,27,23.20
2019,06,26,16,28,23.00
2019,06,26,16,29,22.90
2019,06,26,16,30,22.80
2019,06,26,16,31,22.70
2019,06,26,16,32,22.70
2019,06,26,16,33,22.70
2019,06,26,16,34,22.70
2019,06,26,16,35,22.70
2019,06,26,16,36,22.70
2019,06,26,16,37,22.70
2019,06,26,16,38,22.70
2019,06,26,16,39,22.70
2019,06,26,16,40,22.80
2019,06,26,16,41,22.80
2019,06,26,16,42,22.80
2019,06,26,16,43,22.80
2019,06,26,16,44,22.80
2019,06,26,16,45,22.80
2019,06,26,16,46,22.80
2019,06,26,16,47,22.80
2019,06,26,16,48,22.70
2019,06,26,16,49,22.70
2019,06,26,16,50,22.70
2019,06,26,16,51,22.70
2019,06,26,16,52,22.60
2019,06,26,16,53,22.70
2019,06,26,16,54,22.60
2019,06,26,16,55,22.70
2019,06,26,16,56,22.70
2019,06,26,16,57,22.70
2019,06,26,16,58,22.80
2019,06,26,16,59,22.80
2019,06,26,17,00,22.80
2019,06,26,17,01,22.80
2019,06,26,17,02,22.80
2019,06,26,17,03,22.80
2019,06,26,17,04,22.90
2019,06,26,17,05,22.90
2019,06,26,17,06,22.90
2019,06,26,17,07,23.00
2019,06,26,17,08,23.10
2019,06,26,17,09,23.10
2019,06,26,17,10,23.10
2019,06,26,17,11,23.00
2019,06,26,17,12,23.00
2019,06,26,17,13,22.90
2019,06,26,17,14,22.80
2019,06,26,17,15,22.70
2019,06,26,17,16,22.60
2019,06,26,17,17,22.50
2019,06,26,17,18,22.40
2019,06,26,17,19,22.30